�������l�o���
Date,Time,MP-1(��Sv/h),MP-2(��Sv/h),MP-3(��Sv/h),MP-4(��Sv/h),MP-5(��Sv/h),MP-6(��Sv/h),MP-7(��Sv/h),MP-8(��Sv/h),����,����(m/s),���J
2017/03/11,00:00,1.057,1.736,1.174,2.066,1.438,0.556,1.021,0.949,���k��,6.6,��
2017/03/11,00:10,1.059,1.737,1.176,2.071,1.438,0.553,1.022,0.947,�k��,6.5,��
2017/03/11,00:20,1.057,1.736,1.176,2.064,1.438,0.556,1.022,0.949,���k��,7.9,��
2017/03/11,00:30,1.055,1.733,1.175,2.066,1.440,0.555,1.022,0.946,�k��,7.5,��
2017/03/11,00:40,1.059,1.739,1.176,2.066,1.440,0.554,1.021,0.946,���k��,7.7,��
2017/03/11,00:50,1.057,1.737,1.176,2.065,1.438,0.554,1.023,0.948,���k��,8.3,��
2017/03/11,01:00,1.055,1.738,1.173,2.067,1.438,0.554,1.022,0.948,���k��,7.1,��
2017/03/11,01:10,1.059,1.742,1.174,2.063,1.440,0.556,1.020,0.946,���k��,6.6,��
2017/03/11,01:20,1.055,1.738,1.171,2.066,1.440,0.556,1.020,0.947,���k��,6.5,��
2017/03/11,01:30,1.055,1.739,1.173,2.067,1.439,0.555,1.021,0.947,���k��,6.4,��
2017/03/11,01:40,1.056,1.737,1.176,2.064,1.437,0.556,1.020,0.948,���k��,6.0,��
2017/03/11,01:50,1.055,1.738,1.176,2.067,1.439,0.557,1.022,0.948,���k��,5.7,��
2017/03/11,02:00,1.055,1.737,1.176,2.065,1.437,0.554,1.021,0.948,���k��,6.7,��
2017/03/11,02:10,1.057,1.736,1.176,2.066,1.440,0.556,1.023,0.948,���k��,7.2,��
2017/03/11,02:20,1.056,1.738,1.176,2.064,1.437,0.554,1.024,0.947,���k��,6.2,��
2017/03/11,02:30,1.055,1.738,1.175,2.066,1.440,0.556,1.023,0.948,���k��,4.3,��
2017/03/11,02:40,1.056,1.739,1.174,2.063,1.436,0.556,1.021,0.948,���k��,2.8,��
2017/03/11,02:50,1.056,1.735,1.176,2.066,1.437,0.557,1.022,0.947,���k��,2.8,��
2017/03/11,03:00,1.057,1.737,1.177,2.066,1.440,0.555,1.024,0.949,���k��,3.5,��
2017/03/11,03:10,1.055,1.738,1.174,2.066,1.436,0.555,1.022,0.949,���k��,3.2,��
2017/03/11,03:20,1.053,1.737,1.176,2.069,1.438,0.554,1.023,0.947,�k�k��,3.5,��
2017/03/11,03:30,1.056,1.735,1.172,2.064,1.437,0.554,1.020,0.947,�k��,4.0,��
2017/03/11,03:40,1.055,1.737,1.173,2.066,1.438,0.556,1.021,0.949,�k��,5.3,��
2017/03/11,03:50,1.053,1.733,1.176,2.063,1.438,0.554,1.022,0.947,�k��,4.8,��
2017/03/11,04:00,1.054,1.735,1.174,2.060,1.435,0.554,1.022,0.947,�k��,4.8,��
2017/03/11,04:10,1.054,1.735,1.172,2.063,1.437,0.555,1.021,0.948,�k��,5.3,��
2017/03/11,04:20,1.054,1.738,1.174,2.065,1.436,0.554,1.021,0.947,�k��,6.1,��
2017/03/11,04:30,1.054,1.735,1.172,2.064,1.439,0.553,1.022,0.947,�k�k��,5.9,��
2017/03/11,04:40,1.054,1.735,1.172,2.065,1.437,0.554,1.021,0.946,�k��,5.4,��
2017/03/11,04:50,1.052,1.737,1.172,2.066,1.438,0.555,1.022,0.947,�k��,4.7,��
2017/03/11,05:00,1.052,1.737,1.174,2.061,1.435,0.554,1.021,0.949,�k��,4.6,��
2017/03/11,05:10,1.052,1.735,1.171,2.065,1.438,0.554,1.022,0.945,�k��,5.9,��
2017/03/11,05:20,1.055,1.736,1.172,2.063,1.436,0.554,1.019,0.945,�k��,7.2,��
2017/03/11,05:30,1.053,1.733,1.174,2.065,1.437,0.554,1.020,0.947,�k��,6.0,��
2017/03/11,05:40,1.054,1.736,1.172,2.064,1.437,0.554,1.020,0.946,�k��,6.2,��
2017/03/11,05:50,1.053,1.735,1.172,2.064,1.436,0.553,1.018,0.947,�k��,6.2,��
2017/03/11,06:00,1.054,1.736,1.172,2.062,1.434,0.554,1.019,0.946,�k��,6.7,��
2017/03/11,06:10,1.055,1.733,1.174,2.063,1.436,0.554,1.017,0.945,�k��,6.8,��
2017/03/11,06:20,1.053,1.735,1.172,2.063,1.436,0.553,1.018,0.947,�k��,6.6,��
2017/03/11,06:30,1.051,1.735,1.170,2.063,1.435,0.555,1.020,0.945,�k��,4.6,��
2017/03/11,06:40,1.052,1.734,1.175,2.064,1.435,0.553,1.018,0.947,�k�k��,5.1,��
2017/03/11,06:50,1.053,1.738,1.174,2.063,1.437,0.553,1.022,0.946,�k�k��,4.9,��
2017/03/11,07:00,1.054,1.737,1.171,2.061,1.435,0.556,1.020,0.946,�k�k��,4.7,��
2017/03/11,07:10,1.055,1.734,1.173,2.064,1.436,0.554,1.021,0.947,�k�k��,5.9,��
2017/03/11,07:20,1.053,1.737,1.171,2.065,1.437,0.555,1.020,0.947,�k�k��,6.8,��
2017/03/11,07:30,1.055,1.740,1.173,2.064,1.435,0.555,1.023,0.945,�k�k��,6.3,��
2017/03/11,07:40,1.054,1.741,1.175,2.065,1.437,0.554,1.022,0.945,�k�k��,6.1,��
2017/03/11,07:50,1.055,1.738,1.171,2.064,1.438,0.553,1.023,0.947,�k�k��,6.7,��
2017/03/11,08:00,1.056,1.738,1.161,2.067,1.438,0.555,1.023,0.946,�k�k��,5.9,��
2017/03/11,08:10,1.057,1.740,1.175,2.065,1.438,0.553,1.021,0.948,�k�k��,6.3,��
2017/03/11,08:20,1.057,1.741,1.177,2.067,1.439,0.554,1.021,0.947,�k�k��,6.6,��
2017/03/11,08:30,1.056,1.740,1.178,2.064,1.439,0.554,1.024,0.949,�k,5.0,��
2017/03/11,08:40,1.058,1.742,1.173,2.068,1.441,0.555,1.024,0.948,�k�k��,6.6,��
2017/03/11,08:50,1.059,1.742,1.174,2.065,1.443,0.555,1.023,0.948,�k�k��,7.0,��
2017/03/11,09:00,1.059,1.739,1.163,2.068,1.439,0.555,1.023,0.949,�k�k��,7.8,��
2017/03/11,09:10,1.057,1.739,1.178,2.066,1.440,0.556,1.020,0.948,�k,8.3,��
2017/03/11,09:20,1.059,1.739,1.179,2.066,1.442,0.556,1.022,0.948,�k�k��,8.9,��
2017/03/11,09:30,1.057,1.736,1.182,2.067,1.441,0.556,1.021,0.949,�k�k��,8.8,��
2017/03/11,09:40,1.060,1.739,1.181,2.066,1.439,0.556,1.019,0.949,�k�k��,9.9,��
2017/03/11,09:50,1.058,1.738,1.175,2.069,1.442,0.553,1.020,0.949,�k�k��,9.7,��
2017/03/11,10:00,1.059,1.738,1.178,2.069,1.438,0.555,1.020,0.949,�k�k��,8.7,��
2017/03/11,10:10,1.058,1.742,1.180,2.070,1.442,0.556,1.019,0.949,�k�k��,9.1,��
2017/03/11,10:20,1.060,1.741,1.184,2.068,1.443,0.555,1.021,0.948,�k�k��,8.9,��
2017/03/11,10:30,1.059,1.740,1.179,2.068,1.441,0.555,1.021,0.947,�k�k��,9.4,��
2017/03/11,10:40,1.058,1.738,1.173,2.071,1.444,0.555,1.021,0.946,�k�k��,9.8,��
2017/03/11,10:50,1.060,1.743,1.165,2.071,1.445,0.555,1.019,0.946,�k�k��,8.8,��
2017/03/11,11:00,1.059,1.741,1.179,2.067,1.443,0.556,1.022,0.948,�k�k��,9.5,��
2017/03/11,11:10,1.063,1.744,1.182,2.071,1.447,0.554,1.022,0.946,�k�k��,10.6,��
2017/03/11,11:20,1.060,1.741,1.180,2.074,1.444,0.556,1.021,0.948,�k�k��,9.8,��
2017/03/11,11:30,1.060,1.744,1.181,2.072,1.445,0.555,1.021,0.945,�k�k��,9.6,��
2017/03/11,11:40,1.060,1.744,1.180,2.073,1.445,0.556,1.021,0.949,�k�k��,9.8,��
2017/03/11,11:50,1.060,1.743,1.183,2.073,1.442,0.556,1.023,0.949,�k�k��,10.4,��
2017/03/11,12:00,1.062,1.744,1.184,2.071,1.445,0.555,1.020,0.948,�k�k��,9.0,��
2017/03/11,12:10,1.061,1.741,1.184,2.073,1.445,0.556,1.023,0.951,�k�k��,8.4,��
2017/03/11,12:20,1.058,1.742,1.184,2.071,1.447,0.556,1.023,0.949,�k�k��,9.6,��
2017/03/11,12:30,1.062,1.744,1.184,2.070,1.446,0.557,1.020,0.949,�k�k��,9.7,��
2017/03/11,12:40,1.060,1.741,1.182,2.070,1.445,0.557,1.021,0.949,�k�k��,9.9,��
2017/03/11,12:50,1.064,1.746,1.184,2.071,1.446,0.556,1.022,0.950,�k�k��,9.9,��
2017/03/11,13:00,1.061,1.741,1.183,2.070,1.445,0.557,1.021,0.949,�k�k��,10.2,��
2017/03/11,13:10,1.063,1.748,1.186,2.071,1.445,0.556,1.021,0.950,�k�k��,8.4,��
2017/03/11,13:20,1.062,1.746,1.185,2.071,1.449,0.558,1.020,0.950,�k�k��,9.1,��
2017/03/11,13:30,1.064,1.744,1.186,2.072,1.445,0.556,1.023,0.950,�k�k��,9.6,��
2017/03/11,13:40,1.065,1.747,1.185,2.072,1.443,0.557,1.021,0.946,�k�k��,8.8,��
2017/03/11,13:50,1.063,1.749,1.183,2.072,1.449,0.557,1.021,0.947,�k�k��,9.2,��
2017/03/11,14:00,1.063,1.745,1.185,2.071,1.446,0.558,1.020,0.948,�k�k��,9.1,��
2017/03/11,14:10,1.065,1.747,1.184,2.075,1.447,0.555,1.021,0.946,�k�k��,8.7,��
2017/03/11,14:20,1.065,1.745,1.183,2.072,1.446,0.555,1.023,0.947,�k�k��,8.8,��
2017/03/11,14:30,1.063,1.748,1.187,2.070,1.447,0.556,1.022,0.947,�k�k��,9.6,��
2017/03/11,14:40,1.062,1.750,1.187,2.072,1.447,0.557,1.021,0.948,�k�k��,8.6,��
2017/03/11,14:50,1.064,1.751,1.188,2.073,1.447,0.556,1.021,0.946,�k�k��,10.0,��
2017/03/11,15:00,1.065,1.752,1.187,2.071,1.446,0.556,1.021,0.946,�k�k��,9.4,��
2017/03/11,15:10,1.063,1.748,1.187,2.074,1.447,0.558,1.023,0.947,�k�k��,8.6,��
2017/03/11,15:20,1.063,1.748,1.185,2.073,1.448,0.555,1.021,0.948,�k�k��,9.5,��
2017/03/11,15:30,1.063,1.753,1.186,2.074,1.445,0.556,1.023,0.949,�k�k��,8.7,��
2017/03/11,15:40,1.063,1.748,1.187,2.072,1.445,0.557,1.020,0.949,�k�k��,9.7,��
2017/03/11,15:50,1.063,1.749,1.186,2.075,1.447,0.558,1.023,0.949,�k�k��,9.8,��
2017/03/11,16:00,1.065,1.752,1.188,2.074,1.446,0.557,1.024,0.950,�k,7.0,��
2017/03/11,16:10,1.062,1.751,1.189,2.074,1.448,0.557,1.024,0.951,�k�k��,7.5,��
2017/03/11,16:20,1.063,1.745,1.186,2.073,1.449,0.559,1.025,0.951,�k�k��,7.7,��
2017/03/11,16:30,1.063,1.746,1.185,2.073,1.448,0.556,1.022,0.950,�k��,7.2,��
2017/03/11,16:40,1.062,1.750,1.187,2.073,1.445,0.556,1.022,0.949,�k��,6.0,��
2017/03/11,16:50,1.064,1.750,1.188,2.074,1.446,0.556,1.024,0.951,�k��,6.5,��
2017/03/11,17:00,1.063,1.746,1.185,2.072,1.445,0.557,1.021,0.949,�k��,8.4,��
2017/03/11,17:10,1.065,1.743,1.186,2.075,1.446,0.555,1.023,0.949,�k��,5.5,��
2017/03/11,17:20,1.062,1.745,1.184,2.073,1.445,0.557,1.025,0.950,�k��,6.1,��
2017/03/11,17:30,1.063,1.748,1.185,2.072,1.448,0.556,1.024,0.949,�k�k��,7.1,��
2017/03/11,17:40,1.061,1.747,1.184,2.069,1.448,0.557,1.022,0.949,�k��,7.0,��
2017/03/11,17:50,1.061,1.743,1.185,2.071,1.444,0.557,1.025,0.949,�k��,5.6,��
2017/03/11,18:00,1.061,1.747,1.184,2.071,1.450,0.556,1.023,0.948,�k��,4.7,��
2017/03/11,18:10,1.061,1.746,1.185,2.070,1.445,0.557,1.022,0.947,�k��,5.5,��
2017/03/11,18:20,1.059,1.744,1.186,2.072,1.447,0.555,1.022,0.948,�k��,5.3,��
2017/03/11,18:30,1.060,1.748,1.186,2.071,1.448,0.554,1.022,0.948,�k��,5.3,��
2017/03/11,18:40,1.061,1.746,1.183,2.071,1.447,0.557,1.023,0.948,�k��,5.7,��
2017/03/11,18:50,1.058,1.745,1.185,2.073,1.448,0.553,1.023,0.949,�k��,6.5,��
2017/03/11,19:00,1.060,1.746,1.184,2.072,1.448,0.556,1.022,0.948,�k��,7.1,��
2017/03/11,19:10,1.060,1.746,1.184,2.073,1.445,0.556,1.022,0.947,�k��,6.8,��
2017/03/11,19:20,1.059,1.744,1.183,2.071,1.445,0.555,1.023,0.948,�k��,7.0,��
2017/03/11,19:30,1.060,1.747,1.182,2.069,1.443,0.556,1.021,0.948,���k��,5.5,��
2017/03/11,19:40,1.059,1.745,1.183,2.072,1.448,0.555,1.022,0.949,�k��,4.5,��
2017/03/11,19:50,1.060,1.744,1.184,2.072,1.446,0.555,1.021,0.948,���k��,5.7,��
2017/03/11,20:00,1.060,1.742,1.184,2.069,1.447,0.555,1.022,0.948,���k��,6.6,��
2017/03/11,20:10,1.058,1.742,1.183,2.074,1.446,0.553,1.024,0.947,���k��,6.5,��
2017/03/11,20:20,1.059,1.745,1.184,2.069,1.444,0.555,1.022,0.948,���k��,5.9,��
2017/03/11,20:30,1.058,1.743,1.182,2.071,1.445,0.554,1.023,0.947,�k��,6.2,��
2017/03/11,20:40,1.059,1.743,1.182,2.068,1.445,0.555,1.022,0.948,�k�k��,6.3,��
2017/03/11,20:50,1.057,1.741,1.182,2.068,1.443,0.555,1.022,0.946,�k�k��,7.0,��
2017/03/11,21:00,1.058,1.741,1.182,2.067,1.444,0.555,1.023,0.947,�k�k��,8.5,��
2017/03/11,21:10,1.059,1.739,1.183,2.070,1.447,0.553,1.022,0.948,�k�k��,8.5,��
2017/03/11,21:20,1.058,1.741,1.182,2.068,1.444,0.553,1.020,0.948,�k�k��,7.4,��
2017/03/11,21:30,1.056,1.744,1.182,2.069,1.445,0.553,1.021,0.949,�k�k��,7.4,��
2017/03/11,21:40,1.056,1.741,1.183,2.069,1.444,0.554,1.020,0.949,�k�k��,7.8,��
2017/03/11,21:50,1.055,1.743,1.182,2.068,1.444,0.553,1.023,0.948,�k�k��,8.1,��
2017/03/11,22:00,1.057,1.744,1.183,2.070,1.443,0.554,1.024,0.947,�k�k��,9.5,��
2017/03/11,22:10,1.056,1.742,1.180,2.073,1.447,0.551,1.020,0.947,�k�k��,8.5,��
2017/03/11,22:20,1.057,1.743,1.180,2.069,1.445,0.553,1.023,0.951,�k�k��,9.0,��
2017/03/11,22:30,1.056,1.743,1.180,2.068,1.443,0.552,1.023,0.946,�k�k��,8.8,��
2017/03/11,22:40,1.055,1.742,1.181,2.067,1.444,0.553,1.022,0.948,�k�k��,7.4,��
2017/03/11,22:50,1.058,1.742,1.184,2.069,1.442,0.554,1.022,0.948,�k�k��,7.1,��
2017/03/11,23:00,1.056,1.743,1.181,2.068,1.446,0.554,1.020,0.946,�k�k��,5.4,��
2017/03/11,23:10,1.055,1.742,1.180,2.069,1.443,0.553,1.021,0.947,�k��,4.6,��
2017/03/11,23:20,1.055,1.742,1.180,2.067,1.445,0.553,1.020,0.945,�k��,6.2,��
2017/03/11,23:30,1.055,1.744,1.181,2.066,1.441,0.555,1.019,0.947,�k��,7.6,��
2017/03/11,23:40,1.054,1.744,1.182,2.068,1.445,0.555,1.019,0.946,�k�k��,7.3,��
2017/03/11,23:50,1.055,1.738,1.180,2.069,1.443,0.553,1.019,0.947,�k��,7.2,��
